Location: Oberwangen
(47.4286°N, 8.9679°E)
Time: 10:35:52
(UTC+00:00)

Cosmos 1816 Rocket - Pass Details

Date: 20 October 2021
Orbit: 952 x 998 km, 82.9° (Epoch: 08 December)

Event Time Altitude Azimuth Distance (km) Brightness Sun altitude
Rises 18:23:35 0° 359° (N) 3,644 7.6 -20.4°
Reaches altitude 10° 18:26:39 10° 14° (NNE) 2,698 6.7 -20.9°
Enters shadow 18:29:55 21° 44° (NE) 1,995 5.8 -21.5°
